W4SNA-4 Weather Reports


time (UTC)temp
F
wind
direction
speed
knots
gust
knots
rain 1hr
in
rain 24hr
in
rain mn
in
humidity
%
barometer
mb
20260504211300 76 0 0.0 0.9 0.00 0.00 0.00 34 1008.9
20260504210800 76 0 0.0 0.9 0.00 0.00 0.00 33 1008.1
20260504210304 76 0 0.0 0.0 0.00 0.00 0.00 39 1008.1
20260504205800 76 0 0.0 0.0 0.00 0.00 0.00 33 1008.1
20260504205301 76 0 0.0 0.0 0.00 0.00 0.00 34 1008.1
20260504204800 76 0 0.0 0.0 0.00 0.00 0.00 35 1008.1
20260504204300 76 0 0.0 0.0 0.00 0.00 0.00 34 1008.1
20260504203801 76 0 0.0 0.0 0.00 0.00 0.00 35 1008.5
20260504203303 76 0 0.0 0.0 0.00 0.00 0.00 36 1008.5
20260504202800 76 0 0.0 0.0 0.00 0.00 0.00 37 1008.5
20260504202010 76 0 0.0 0.0 0.00 0.00 0.00 37 1008.6
20260504201510 76 0 0.0 0.0 0.00 0.00 0.00 37 1008.6
20260504201012 76 0 0.0 0.0 0.00 0.00 0.00 37 1008.6
20260504200510 75 0 0.0 0.0 0.00 0.00 0.00 39 1008.7
20260504200009 75 0 0.0 0.0 0.00 0.00 0.00 36 1008.7
20260504195628 75 0 0.0 0.0 0.00 0.00 0.00 39 1008.7
20260504195510 75 0 0.0 0.0 0.00 0.00 0.00 39 1008.7
20260504195016 75 0 0.0 0.0 0.00 0.00 0.00 39 1008.7
20260504194510 75 0 0.0 0.0 0.00 0.00 0.00 39 1008.7
20260504194010 75 0 0.0 0.0 0.00 0.00 0.00 38 1008.7
20260504193509 75 0 0.0 0.0 0.00 0.00 0.00 40 1009.1
20260504193012 75 0 0.0 0.0 0.00 0.00 0.00 39 1009.1
20260504192513 75 0 0.0 0.0 0.00 0.00 0.00 40 1009.1
20260504192010 75 0 0.0 0.9 0.00 0.00 0.00 40 1009.2
20260504191510 75 0 0.0 0.9 0.00 0.00 0.00 40 1009.2
20260504191011 75 0 0.0 0.0 0.00 0.00 0.00 39 1009.2
20260504190510 75 0 0.0 0.0 0.00 0.00 0.00 39 1009.4
20260504190010 75 0 0.0 0.0 0.00 0.00 0.00 41 1009.4
20260504185511 75 0 0.0 0.0 0.00 0.00 0.00 39 1009.4
20260504185010 75 0 0.0 0.0 0.00 0.00 0.00 39 1009.7
20260504184509 75 0 0.0 0.0 0.00 0.00 0.00 42 1009.7
20260504184017 75 0 0.0 0.0 0.00 0.00 0.00 40 1009.7
20260504183515 75 0 0.0 0.0 0.00 0.00 0.00 39 1009.8
20260504183009 75 0 0.0 0.0 0.00 0.00 0.00 39 1009.8
20260504182453 75 0 0.0 0.9 0.00 0.00 0.00 40 1009.9
20260504181954 75 0 0.0 0.9 0.00 0.00 0.00 38 1009.9
20260504181453 75 0 0.0 0.0 0.00 0.00 0.00 39 1009.9
20260504180953 75 0 0.0 0.0 0.00 0.00 0.00 40 1009.8
20260504180009 74 0 0.0 0.0 0.00 0.00 0.00 40 1009.8
20260504175509 74 0 0.0 0.0 0.00 0.00 0.00 41 1009.8
20260504175008 74 0 0.0 0.0 0.00 0.00 0.00 40 1009.9
20260504174511 74 0 0.0 0.0 0.00 0.00 0.00 39 1009.9
20260504174009 73 0 0.0 0.0 0.00 0.00 0.00 39 1009.9
20260504173509 73 0 0.0 0.0 0.00 0.00 0.00 37 1010.0
20260504173009 73 0 0.0 0.0 0.00 0.00 0.00 42 1010.0
20260504172508 73 0 0.0 0.0 0.00 0.00 0.00 40 1010.0
20260504172010 72 0 0.0 0.0 0.00 0.00 0.00 40 1010.4
20260504171509 72 0 0.0 0.0 0.00 0.00 0.00 39 1010.4
20260504171008 73 0 0.0 0.0 0.00 0.00 0.00 38 1010.4
20260504170509 73 0 0.0 0.0 0.00 0.00 0.00 39 1010.6
20260504160420 72 0 0.0 0.0 0.00 0.00 0.00 42 1011.8
20260504150918 68 0 0.0 0.9 0.00 0.00 0.00 48 1011.8
20260504150418 68 0 0.0 1.7 0.00 0.00 0.00 49 1011.8
20260504140918 60 0 0.0 0.0 0.00 0.00 0.00 65 1011.6
20260504140419 59 0 0.0 0.0 0.00 0.00 0.00 69 1011.6
20260504130420 53 0 0.0 0.0 0.00 0.00 0.00 75 1011.4
20260504130310 53 0 0.0 0.0 0.00 0.00 0.00 75 1011.4
20260504110556 52 0 0.0 0.0 0.00 0.00 0.00 73 1011.2
20260504100441 52 0 0.0 0.0 0.00 0.00 0.00 70 1011.2
20260504081746 53 0 0.0 0.0 0.00 0.00 0.00 68 1010.9
20260504081246 53 0 0.0 0.0 0.00 0.00 0.00 68 1010.9
20260504080747 53 0 0.0 0.0 0.00 0.00 0.00 68 1010.8
20260504080246 53 0 0.0 0.0 0.00 0.00 0.00 68 1010.8
20260504070247 53 0 0.0 0.0 0.00 0.00 0.00 69 1011.1
20260504050739 56 0 0.0 0.0 0.00 0.00 0.00 60 1011.3
20260504050242 56 0 0.0 0.0 0.00 0.00 0.00 60 1011.3
20260504045747 56 0 0.0 0.0 0.00 0.00 0.00 60 1011.3
20260504045247 56 0 0.0 0.0 0.00 0.00 0.00 60 1011.0
20260504044747 56 0 0.0 0.9 0.00 0.00 0.00 59 1011.0
20260504044253 56 0 0.0 0.9 0.00 0.00 0.00 59 1011.0
20260504043746 56 0 0.0 0.0 0.00 0.00 0.00 59 1011.2
20260504043246 56 0 0.0 0.0 0.00 0.00 0.00 59 1011.2
20260504042745 57 0 0.0 0.0 0.00 0.00 0.00 58 1011.2
20260504042246 57 0 0.0 0.0 0.00 0.00 0.00 57 1011.3
20260504041745 57 0 0.0 0.0 0.00 0.00 0.00 57 1011.3
20260504041255 57 0 0.0 0.0 0.00 0.00 0.00 57 1011.3
20260504040750 57 0 0.0 0.0 0.00 0.00 0.00 56 1011.3
20260504040327 57 0 0.0 0.0 0.00 0.00 0.00 55 1011.4
20260504040244 57 0 0.0 0.0 0.00 0.00 0.00 56 1011.3
20260504035746 57 0 0.0 0.0 0.00 0.00 0.00 55 1011.3
20260504035341 57 0 0.0 0.0 0.00 0.00 0.00 55 1011.4
20260504035246 57 0 0.0 0.0 0.00 0.00 0.00 55 1011.4
20260504034745 57 0 0.0 0.0 0.00 0.00 0.00 55 1011.4
20260504034246 57 0 0.0 0.0 0.00 0.00 0.00 54 1011.4
20260504033745 58 0 0.0 0.0 0.00 0.00 0.00 53 1011.5
20260504033247 58 0 0.0 0.0 0.00 0.00 0.00 53 1011.5
20260504032746 58 0 0.0 0.0 0.00 0.00 0.00 52 1011.5
20260504032246 58 0 0.0 0.0 0.00 0.00 0.00 52 1011.6
20260504031750 58 0 0.0 0.0 0.00 0.00 0.00 51 1011.6
20260504031245 58 0 0.0 0.0 0.00 0.00 0.00 51 1011.6
20260504030742 58 0 0.0 0.0 0.00 0.00 0.00 50 1011.5
20260504030244 59 0 0.0 0.0 0.00 0.00 0.00 50 1011.5
20260504025745 59 0 0.0 0.0 0.00 0.00 0.00 50 1011.5
20260504025335 59 0 0.0 0.0 0.00 0.00 0.00 49 1011.5
20260504024826 59 0 0.0 0.0 0.00 0.00 0.00 49 1011.5
20260504024246 59 0 0.0 0.0 0.00 0.00 0.00 48 1011.5
20260504023746 59 0 0.0 0.0 0.00 0.00 0.00 48 1011.4
20260504023242 59 0 0.0 0.0 0.00 0.00 0.00 48 1011.4
20260504022246 59 0 0.0 0.0 0.00 0.00 0.00 46 1011.2
20260504021745 60 0 0.0 0.0 0.00 0.00 0.00 46 1011.2
20260504021241 60 0 0.0 0.0 0.00 0.00 0.00 45 1011.2
20260504020739 60 0 0.0 0.0 0.00 0.00 0.00 44 1011.0
20260504020239 60 0 0.0 0.0 0.00 0.00 0.00 44 1011.0
20260504015739 60 0 0.0 0.0 0.00 0.00 0.00 44 1011.0
20260504015241 60 0 0.0 0.0 0.00 0.00 0.00 43 1010.8
20260504014816 60 0 0.0 0.0 0.00 0.00 0.00 43 1010.8
20260504014739 60 0 0.0 0.0 0.00 0.00 0.00 43 1010.8
20260504014239 60 0 0.0 0.0 0.00 0.00 0.00 43 1010.8
20260504013739 60 0 0.0 0.0 0.00 0.00 0.00 43 1010.8
20260504013242 60 0 0.0 0.0 0.00 0.00 0.00 42 1010.8
20260504012550 60 0 0.0 0.0 0.00 0.00 0.00 42 1010.8
20260504012056 60 0 0.0 0.0 0.00 0.00 0.00 43 1010.7
20260504011556 61 0 0.0 0.0 0.00 0.00 0.00 43 1010.7
20260504011056 61 0 0.0 0.0 0.00 0.00 0.00 42 1010.7
20260504010556 61 0 0.0 0.0 0.00 0.00 0.00 42 1010.5
20260504010056 61 0 0.0 0.0 0.00 0.00 0.00 41 1010.5
20260504005550 61 0 0.0 0.0 0.00 0.00 0.00 42 1010.5
20260504005058 61 0 0.0 0.0 0.00 0.00 0.00 42 1010.5
20260504004550 61 0 0.0 0.0 0.00 0.00 0.00 42 1010.5
20260504004028 61 0 0.0 0.0 0.00 0.00 0.00 42 1010.5
20260504003550 61 0 0.0 0.0 0.00 0.00 0.00 42 1010.4
20260504003029 61 0 0.0 0.0 0.00 0.00 0.00 42 1010.4
20260504002420 61 0 0.0 0.0 0.00 0.00 0.00 42 1010.3
20260504001919 61 0 0.0 0.0 0.00 0.00 0.00 42 1010.3
20260504001420 61 0 0.0 0.0 0.00 0.00 0.00 42 1010.3
20260504000920 61 0 0.0 0.0 0.00 0.00 0.00 41 1010.3
20260504000419 61 0 0.0 0.0 0.00 0.00 0.00 42 1010.3
20260503235923 62 0 0.0 0.0 0.00 0.00 0.00 41 1010.3
20260503235419 62 0 0.0 0.0 0.00 0.00 0.00 41 1010.3
20260503234919 62 0 0.0 0.0 0.00 0.00 0.00 42 1010.3
20260503234420 63 0 0.0 0.0 0.00 0.00 0.00 40 1010.3
20260503233919 63 0 0.0 0.0 0.00 0.00 0.00 40 1010.3
20260503233419 63 0 0.0 0.0 0.00 0.00 0.00 40 1010.3
20260503232931 63 0 0.0 0.0 0.00 0.00 0.00 38 1010.3
20260503232419 64 0 0.0 0.0 0.00 0.00 0.00 38 1010.3
20260503231920 64 0 0.0 0.0 0.00 0.00 0.00 39 1010.3
20260503231419 64 0 0.0 0.0 0.00 0.00 0.00 38 1010.3
20260503230919 64 0 0.0 0.0 0.00 0.00 0.00 39 1010.3
20260503230420 64 0 0.0 0.0 0.00 0.00 0.00 38 1010.3
20260503225839 64 0 0.0 0.0 0.00 0.00 0.00 37 1010.3
20260503225333 64 0 0.0 0.0 0.00 0.00 0.00 40 1010.4
20260503224833 64 0 0.0 0.0 0.00 0.00 0.00 39 1010.4
20260503224333 64 0 0.0 0.0 0.00 0.00 0.00 38 1010.4
20260503223833 64 0 0.0 0.0 0.00 0.00 0.00 39 1010.5
20260503223333 64 0 0.0 0.9 0.00 0.00 0.00 37 1010.5
20260503222834 64 0 0.0 0.9 0.00 0.00 0.00 38 1010.5
20260503222333 64 0 0.0 0.0 0.00 0.00 0.00 37 1010.7
20260503221831 65 0 0.0 0.0 0.00 0.00 0.00 37 1010.7
20260503221330 65 0 0.0 0.0 0.00 0.00 0.00 36 1010.7
20260503220831 65 0 0.0 0.0 0.00 0.00 0.00 38 1010.8
20260503220331 65 0 0.0 0.0 0.00 0.00 0.00 42 1010.8
20260503215832 65 0 0.0 0.0 0.00 0.00 0.00 38 1010.8
20260503215336 65 0 0.0 0.0 0.00 0.00 0.00 38 1010.9
20260503214831 65 0 0.0 0.0 0.00 0.00 0.00 38 1010.9
20260503214333 65 0 0.0 0.0 0.00 0.00 0.00 36 1010.9
20260503213831 65 0 0.0 0.0 0.00 0.00 0.00 35 1011.1
20260503213330 65 0 0.0 0.0 0.00 0.00 0.00 37 1011.1
20260503212834 65 0 0.0 0.0 0.00 0.00 0.00 37 1011.1
20260503212331 65 0 0.0 0.0 0.00 0.00 0.00 37 1011.3
20260503211831 65 0 0.0 0.0 0.00 0.00 0.00 38 1011.3